EW6338 Weather Reports


Display with metric or nautical units.
time (UTC)temp
F
wind
direction
speed
MPH
gust
MPH
rain 1hr
in
rain 24hr
in
rain mn
in
humidity
%
barometer
mb
20260902230017 65 139 0.0 0.0 0.00 0.00 0.00 91 1019.6
20260902224530 66 139 0.0 0.0 0.00 0.00 0.00 90 1019.4
20260902223017 67 129 0.0 0.0 0.00 0.00 0.00 90 1019.6
20260902221521 67 337 0.0 0.0 0.00 0.00 0.00 89 1019.8
20260902220038 68 335 0.0 0.0 0.00 0.00 0.00 87 1019.8
20260902214515 70 94 0.0 2.0 0.00 0.00 0.00 84 1019.7
20260902213014 70 131 0.0 0.0 0.00 0.00 0.00 84 1019.7
20260902211513 72 115 0.0 2.0 0.00 0.00 0.00 83 1019.5
20260902210019 71 121 0.0 1.0 0.00 0.00 0.00 84 1019.7
20260902204514 71 100 0.0 2.0 0.00 0.00 0.00 83 1019.8
20260902203010 70 125 0.0 1.0 0.00 0.00 0.00 86 1020.0
20260902201528 69 155 0.0 1.0 0.00 0.00 0.00 86 1020.3
20260902200009 70 117 0.0 0.0 0.00 0.00 0.00 86 1020.3
20260902194523 70 118 0.0 0.0 0.00 0.00 0.00 85 1020.5
20260902193025 70 124 0.0 0.0 0.00 0.00 0.00 85 1020.6
20260902191507 70 117 0.0 2.0 0.00 0.00 0.00 83 1020.6
20260902190010 70 109 0.0 1.0 0.00 0.00 0.00 84 1020.4
20260902184511 70 118 0.0 1.0 0.00 0.00 0.00 83 1020.5
20260902183005 70 124 0.0 3.0 0.00 0.00 0.00 85 1020.3
20260902181503 69 135 0.0 2.0 0.00 0.00 0.00 86 1020.6
20260902180006 68 131 0.0 1.0 0.00 0.02 0.00 86 1020.8
20260902174502 69 113 0.0 0.0 0.00 0.02 0.00 86 1020.8
20260902173003 69 99 0.0 1.0 0.00 0.02 0.00 86 1020.7
20260902171501 69 124 0.0 1.0 0.00 0.02 0.00 87 1020.7
20260902170100 70 107 0.0 1.0 0.00 0.02 0.00 86 1020.8
20260902164604 70 150 0.0 1.0 0.00 0.02 0.00 86 1020.7
20260902163104 70 122 0.0 1.0 0.00 0.02 0.00 86 1020.9
20260902161601 70 72 0.0 1.0 0.00 0.02 0.00 87 1020.9
20260902160110 70 98 0.0 1.0 0.00 0.02 0.00 87 1021.1
20260902154559 70 122 0.0 1.0 0.00 0.03 0.00 89 1021.3
20260902153056 69 120 0.0 0.0 0.00 0.03 0.00 91 1021.4
20260902151551 68 148 0.0 0.0 0.00 0.03 0.00 93 1021.7
20260902150048 68 129 0.0 0.0 0.00 0.03 0.00 94 1021.5
20260902144544 67 129 0.0 0.0 0.00 0.04 0.00 95 1021.2
20260902143043 67 127 0.0 0.0 0.00 0.04 0.00 97 1020.9
20260902141539 66 146 0.0 0.0 0.00 0.04 0.00 98 1021.0
20260902140038 66 123 0.0 0.0 0.00 0.04 0.00 98 1020.7
20260902134543 65 123 0.0 0.0 0.00 0.18 0.00 99 1020.7
20260902133035 64 131 0.0 0.0 0.00 0.18 0.00 99 1020.9
20260902131541 64 131 0.0 0.0 0.00 0.18 0.00 99 1020.9
20260902130035 64 131 0.0 0.0 0.00 0.18 0.00 99 1020.8
20260902124531 63 131 0.0 0.0 0.00 0.37 0.00 99 1020.9
20260902123034 63 131 0.0 0.0 0.00 0.37 0.00 99 1021.0
20260902121529 63 131 0.0 0.0 0.00 0.37 0.00 99 1021.0
20260902120028 63 131 0.0 0.0 0.00 0.37 0.00 99 1021.1
20260902114529 62 131 0.0 0.0 0.00 0.39 0.00 99 1021.0
20260902113034 62 131 0.0 0.0 0.00 0.39 0.00 99 1020.9
20260902111523 62 131 0.0 0.0 0.00 0.39 0.00 99 1020.7
20260902110036 62 131 0.0 0.0 0.00 0.39 0.00 99 1020.7
20260902104520 62 131 0.0 0.0 0.00 0.39 0.00 99 1020.2
20260902103020 62 131 0.0 0.0 0.00 0.39 0.00 99 1020.3
20260902101517 62 131 0.0 0.0 0.00 0.39 0.00 99 1020.3
20260902100017 62 131 0.0 0.0 0.00 0.39 0.00 99 1019.8
20260902094517 61 131 0.0 0.0 0.00 0.39 0.00 99 1019.9
20260902093020 61 131 0.0 0.0 0.00 0.39 0.00 99 1019.8
20260902091512 61 131 0.0 0.0 0.00 0.39 0.00 99 1019.5
20260902090013 61 131 0.0 0.0 0.00 0.39 0.00 98 1019.6
20260902084518 61 131 0.0 0.0 0.00 0.39 0.00 98 1019.4
20260902083011 61 131 0.0 0.0 0.00 0.39 0.00 98 1019.7
20260902081509 61 131 0.0 0.0 0.00 0.39 0.00 98 1019.7
20260902080009 61 131 0.0 0.0 0.00 0.39 0.00 98 1019.8
20260902074509 61 131 0.0 0.0 0.00 0.39 0.00 98 1019.8
20260902073007 61 131 0.0 0.0 0.00 0.39 0.00 98 1019.7
20260902071507 61 131 0.0 0.0 0.00 0.39 0.00 98 1019.6
20260902070007 61 131 0.0 0.0 0.00 0.39 0.00 98 1019.5
20260902064504 61 131 0.0 0.0 0.00 0.39 0.00 98 1019.6
20260902063004 61 131 0.0 0.0 0.00 0.39 0.00 98 1019.5
20260902061507 61 131 0.0 0.0 0.00 0.39 0.00 98 1019.5
20260902060004 61 131 0.0 0.0 0.00 0.39 0.00 98 1019.6
20260902054501 61 131 0.0 0.0 0.00 0.39 0.00 98 1019.6
20260902053107 61 131 0.0 0.0 0.00 0.39 0.00 98 1019.5
20260902051600 61 131 0.0 0.0 0.00 0.39 0.00 98 1019.3
20260902050057 61 131 0.0 0.0 0.00 0.39 0.00 98 1018.9
20260902044554 60 131 0.0 0.0 0.00 0.39 0.00 98 1018.7
20260902043052 60 131 0.0 0.0 0.00 0.39 0.00 98 1018.6
20260902041549 60 131 0.0 0.0 0.00 0.39 0.00 98 1018.6
20260902040051 60 131 0.0 0.0 0.00 0.39 0.00 98 1018.2
20260902034546 60 131 0.0 0.0 0.00 0.39 0.39 97 1018.1
20260902033045 61 131 0.0 0.0 0.00 0.39 0.39 97 1018.0
20260902031546 61 131 0.0 0.0 0.00 0.39 0.39 97 1018.0
20260902030044 61 131 0.0 0.0 0.00 0.39 0.39 98 1018.1
20260902024544 61 131 0.0 0.0 0.00 0.39 0.39 97 1018.0
20260902023055 61 131 0.0 0.0 0.00 0.39 0.39 97 1018.1
20260902021542 61 131 0.0 0.0 0.00 0.39 0.39 97 1018.3
20260902020040 61 131 0.0 0.0 0.00 0.39 0.39 97 1018.2
20260902014541 61 131 0.0 0.0 0.00 0.39 0.39 97 1018.1
20260902013048 61 131 0.0 0.0 0.00 0.39 0.39 97 1018.1
20260902011537 61 131 0.0 0.0 0.00 0.39 0.39 97 1018.1
20260902010036 62 131 0.0 0.0 0.00 0.39 0.39 97 1017.9
20260902004537 62 131 0.0 0.0 0.00 0.39 0.39 97 1017.8
20260902003039 62 131 0.0 0.0 0.00 0.39 0.39 97 1017.8
20260902001545 62 131 0.0 0.0 0.00 0.39 0.39 96 1017.4
20260902000037 62 131 0.0 0.0 0.00 0.39 0.39 96 1017.2
20260901234533 62 131 0.0 0.0 0.00 0.39 0.39 96 1017.4
20260901233033 62 131 0.0 0.0 0.00 0.39 0.39 96 1017.5
20260901231531 63 131 0.0 0.0 0.00 0.39 0.39 95 1017.3